[[[{"header":{"parameterUnit":"kt","parameterCategory":2,"dx":1,"dy":1,"la1":30.253999710083008,"la2":30.299108505249023,"lo1":-89.0895004272461,"lo2":-89.04439544677734,"nx":28,"ny":28,"refTime":"2022-10-23T21:00:00:Z","depth":0,"parameterNumber":1,"parameterNumberName":"U-component_of_WINDS"},"data":[6.5597,6.5596,6.5532,6.5502,6.5438,6.5406,6.5373,6.5325,6.5268,6.5223,6.5185,6.5116,6.5032,6.497,6.4924,6.4894,6.488,6.4933,6.4888,6.4717,6.4688,6.4661,6.4657,6.4931,6.4931,6.5076,6.5077,6.5078,6.549,6.5428,6.5391,6.531,6.5279,6.5191,6.5119,6.5099,6.5072,6.5001,6.4957,6.491,6.4863,6.4757,6.47,6.4699,6.4653,6.4689,6.4688,6.4676,6.449,6.4487,6.4728,6.4728,6.4728,6.4728,6.4728,6.4728,6.5279,6.5281,6.5191,6.5149,6.509,6.5036,6.5025,6.494,6.4901,6.4832,6.4756,6.4723,6.4636,6.4529,6.4476,6.4448,6.4394,6.4411,6.4415,6.4421,6.4441,6.4248,6.4434,6.4433,6.4432,6.4431,6.4431,0,6.5103,6.5047,6.5003,6.4943,6.4907,6.4852,6.4788,6.478,6.463,6.4604,6.456,6.4523,6.4449,6.4399,6.4327,6.4264,6.4165,6.4146,6.4157,6.4195,6.4243,6.4221,6.3924,6.4139,6.4137,6.4135,6.4133,6.4132,6.4887,6.4893,6.4763,6.4742,6.4688,6.4656,6.4622,6.4488,6.4458,6.4359,6.4366,6.4313,6.4263,6.4203,6.4096,6.4039,6.3989,6.4081,6.3979,6.4019,6.3993,6.3995,6.3996,6.4102,6.4106,6.4109,6.4112,0,6.4773,6.4656,6.4642,6.4508,6.4475,6.449,6.4375,6.4368,6.4281,6.426,6.4247,6.411,6.4067,6.3943,6.3867,6.3804,6.3831,6.3783,6.3863,6.3847,6.3918,6.3914,6.4162,6.4189,6.3903,6.3905,6.3908,0,6.4542,6.4554,6.4379,6.4376,6.4387,6.4248,6.4263,6.4188,6.4106,6.4088,6.3953,6.3939,6.3781,6.375,6.3656,6.3654,6.3638,6.359,6.3565,6.3603,6.3609,6.3582,6.357,6.3504,6.3503,6.3502,6.3501,0,6.4375,6.4291,6.4287,6.4248,6.4102,6.4103,6.4043,6.3946,6.3912,6.3848,6.3824,6.3759,6.3723,6.3675,6.3555,6.3491,6.3548,6.3435,6.3499,6.3503,6.3516,6.3517,6.377,6.3499,6.3499,6.3498,6.3498,0,6.4167,6.4104,6.4113,6.3989,6.3972,6.3967,6.3893,6.3859,6.3768,6.3707,6.3654,6.3547,6.3531,6.3431,6.3409,6.3361,6.3334,6.3285,6.3287,6.3277,6.3166,6.3328,6.358,6.3602,6.3272,6.327,6.3268,0,6.4012,6.3986,6.3864,6.3874,6.3844,6.3694,6.3687,6.3607,6.3525,6.3488,6.3396,6.3354,6.3251,6.3219,6.3225,6.3128,6.3191,6.3116,6.3067,6.3067,6.3099,6.333,6.3399,6.3539,6.3242,6.3245,6.3247,0,6.3874,6.369,6.37,6.3649,6.3518,6.349,6.3481,6.3406,6.3389,6.3311,6.3301,6.3235,6.3156,6.3103,6.3006,6.3019,6.3145,6.293,6.2925,6.2976,6.3216,6.3284,6.3308,6.3077,6.308,6.3083,6.3226,0,6.3595,6.3561,6.3581,6.3469,6.3426,6.3422,6.3283,6.3257,6.3169,6.3079,6.3059,6.2953,6.2875,6.2865,6.2776,6.2844,6.2812,6.2725,6.2614,6.2767,6.2811,6.2828,6.2562,6.2557,6.2554,6.2551,0,0,6.3476,6.3423,6.3283,6.3265,6.3221,6.3059,6.3067,6.3004,6.2879,6.2853,6.2791,6.2683,6.2598,6.2587,6.2623,6.259,6.259,6.2539,6.2695,6.2712,6.2726,6.2776,6.2797,6.2545,6.2544,6.2542,6.2541,0,6.3343,6.3259,6.3267,6.3196,6.3083,6.2985,6.2989,6.2847,6.2789,6.2764,6.2628,6.2598,6.2511,6.2441,6.2395,6.2538,6.2436,6.2524,6.2651,6.2665,6.2686,6.2705,6.2759,6.278,6.2533,6.2533,6.2534,0,6.3183,6.3079,6.3066,6.2951,6.2874,6.2844,6.2696,6.2667,6.2643,6.2461,6.2438,6.236,6.2252,6.2257,6.2253,6.2196,6.2306,6.2243,6.226,6.2256,6.2263,6.2289,6.2312,6.201,6.2009,6.2008,0,0,6.3087,6.3052,6.2893,6.2911,6.2873,6.2725,6.2692,6.2598,6.2503,6.2466,6.2361,6.2274,6.2222,6.2191,6.2134,6.2159,6.2125,6.2184,6.2209,6.2229,6.2237,6.225,6.2275,6.2003,6.2003,6.2003,0,0,6.304,6.2856,6.2781,6.2783,6.27,6.2542,6.2559,6.2463,6.2396,6.238,6.2217,6.2186,6.2187,6.2113,6.2069,6.2092,6.1985,6.1993,6.2139,6.2168,6.2192,6.2209,6.1898,0,0,0,0,0,6.2829,6.2879,6.2813,6.2792,6.2642,6.258,6.2559,6.2426,6.2355,6.2373,6.227,6.216,6.2057,6.2013,6.1995,6.2045,6.1944,6.1954,6.1964,6.2158,6.219,6.2217,0,0,0,0,0,0,6.2819,6.2794,6.2811,6.2659,6.2623,6.2576,6.2427,6.2392,6.235,6.233,6.2184,6.2156,6.204,6.2014,6.1999,6.2049,6.1902,6.1948,6.1957,6.1965,6.2169,6.2195,6.2218,0,0,0,0,0,6.2811,6.279,6.2584,6.2657,6.2626,6.2461,6.2424,6.2394,6.2358,6.2196,6.2165,6.2261,6.2045,6.2023,6.2004,6.206,6.1911,6.1906,6.1954,6.1961,6.1967,6.2182,0,0,0,0,0,0,6.2805,6.2762,6.2575,6.256,6.2626,6.2461,6.243,6.2396,6.2224,6.2194,6.2265,6.2251,6.2049,6.2031,6.2015,6.2071,6.1919,6.1914,6.1911,6.1959,6.1965,6.197,0,0,0,0,0,0,6.2772,6.2751,6.2567,6.2536,6.2516,6.2462,6.2434,6.2397,6.2224,6.2302,6.2285,6.2261,6.2072,6.2038,6.2024,6.1971,6.1925,6.192,6.1917,6.1914,6.1964,6.1968,0,0,0,0,0,0,6.2761,6.2743,6.2538,6.2524,6.2507,6.2337,6.2425,6.2279,6.2199,6.2312,6.2188,6.2183,6.2082,6.2066,6.2032,6.1985,6.1975,6.1925,6.1921,6.1919,6.1917,0,0,0,0,0,0,0,6.2752,6.2904,6.2659,6.2514,6.2499,6.2429,6.2425,6.2421,6.2198,6.2194,6.2189,6.2185,6.1952,6.1947,6.1942,6.1996,0,0,6.1925,6.1923,0,0,0,0,0,0,0,0,6.2909,6.2905,6.2659,6.2656,6.2653,6.2428,6.2425,6.2422,6.2197,6.2194,6.219,6.2187,6.1951,6.1947,6.1942,0,0,0,0,0,0,0,0,0,0,0,0,0,0,0,6.2659,6.2656,0,6.2428,6.2425,6.2423,6.2197,6.2194,6.2191,6.2188,6.195,6.1946,6.1943,0,0,0,0,0,0,0,0,0,0,0,0,0,0,0,0,0,0,0,0,0,0,0,0,0,0,0,0,0,0,0,0,0,0,0,0,0,0,0,0,0,0,0,0,0,0,0,0,0,0,0,0,0,0,0,0,0,0,0,0,0,0,0,0,0,0,0,0,0]}],[{"header":{"parameterUnit":"kt","parameterCategory":2,"dx":1,"dy":1,"la1":30.253999710083008,"la2":30.299108505249023,"lo1":-89.0895004272461,"lo2":-89.04439544677734,"nx":28,"ny":28,"refTime":"2022-10-23T21:00:00:Z","depth":0,"parameterNumber":2,"parameterNumberName":"V-component_of_WINDS"},"data":[12.2267,12.2536,12.2647,12.3002,12.3161,12.3423,12.3551,12.3727,12.3894,12.4214,12.4417,12.4551,12.4757,12.5022,12.5245,12.5299,12.5387,12.5403,12.5464,12.5296,12.528,12.5264,12.5211,12.5419,12.542,12.5625,12.5627,12.5629,12.2137,12.2298,12.2518,12.2807,12.2996,12.3048,12.3279,12.3433,12.3663,12.3869,12.4075,12.4364,12.4604,12.4809,12.5057,12.5182,12.5219,12.5241,12.5236,12.5268,12.5091,12.5034,12.5207,12.5207,12.5207,12.5207,12.5207,12.5207,12.1931,12.2086,12.2327,12.2568,12.2741,12.2932,12.3099,12.3263,12.3476,12.3752,12.3838,12.4098,12.4323,12.4674,12.4816,12.5021,12.5015,12.5072,12.5088,12.5101,12.5103,12.4799,12.5066,12.5066,12.5066,12.5066,12.5066,0,12.1815,12.1898,12.2117,12.2369,12.2549,12.2753,12.2958,12.3063,12.327,12.3436,12.3687,12.3849,12.4166,12.4412,12.4667,12.4806,12.4874,12.489,12.4931,12.4898,12.4836,12.4877,12.4587,12.4882,12.4881,12.488,12.488,12.4879,12.1619,12.1786,12.209,12.2228,12.2369,12.2587,12.274,12.291,12.3064,12.3338,12.3464,12.3713,12.3921,12.4299,12.4483,12.4719,12.4755,12.4857,12.479,12.4751,12.4763,12.4753,12.4772,12.4867,12.4869,12.487,12.4871,0,12.1499,12.168,12.1974,12.2257,12.2333,12.2497,12.2738,12.2898,12.3038,12.3276,12.3342,12.3561,12.3801,12.3971,12.4276,12.4357,12.4629,12.4655,12.4555,12.4571,12.4682,12.4671,12.5009,12.5063,12.4844,12.4846,12.4847,0,12.1405,12.1616,12.1874,12.2034,12.2275,12.2442,12.2674,12.2818,12.3017,12.3206,12.3312,12.3487,12.3676,12.3875,12.3994,12.4246,12.4301,12.438,12.441,12.4374,12.4364,12.4458,12.445,12.4465,12.4463,12.4461,12.446,0,12.1201,12.1584,12.1847,12.1963,12.2285,12.2402,12.254,12.2764,12.291,12.3126,12.3223,12.346,12.3591,12.3771,12.3924,12.3873,12.4233,12.4195,12.4314,12.4311,12.4388,12.4381,12.4635,12.4458,12.4457,12.4457,12.4456,0,12.1154,12.1375,12.1725,12.1998,12.2091,12.226,12.2511,12.2695,12.2922,12.3011,12.3181,12.3272,12.3504,12.3454,12.3776,12.3668,12.3789,12.3885,12.3896,12.3931,12.3872,12.3998,12.4218,12.425,12.3958,12.3954,12.395,0,12.0873,12.1276,12.1425,12.1753,12.1963,12.2074,12.2265,12.2463,12.2597,12.2792,12.2938,12.3157,12.3156,12.3249,12.3385,12.3544,12.3684,12.3529,12.3807,12.3815,12.375,12.3954,12.3947,12.415,12.3899,12.3904,12.3908,0,12.068,12.1072,12.112,12.1262,12.1554,12.1728,12.1946,12.2203,12.2326,12.2534,12.2722,12.303,12.3045,12.3194,12.3293,12.3426,12.3594,12.3422,12.343,12.345,12.3886,12.3879,12.3913,12.363,12.3637,12.3642,12.3868,0,12.0576,12.0799,12.0936,12.124,12.1402,12.1615,12.1803,12.1947,12.2029,12.2167,12.2443,12.2646,12.2903,12.2984,12.3062,12.3312,12.3297,12.3308,12.3275,12.3405,12.3484,12.3516,12.3142,12.3142,12.3142,12.3142,0,0,12.0264,12.059,12.0746,12.0967,12.1114,12.1227,12.1439,12.1593,12.1901,12.1999,12.1982,12.2447,12.2612,12.2928,12.2982,12.3084,12.3146,12.3093,12.334,12.3362,12.3382,12.3463,12.3494,12.3142,12.3142,12.3142,12.3142,0,12.0267,12.0441,12.065,12.0819,12.1075,12.1212,12.1261,12.1533,12.1631,12.1902,12.1988,12.2174,12.2539,12.2706,12.2838,12.3059,12.3113,12.3121,12.3182,12.3334,12.3355,12.3375,12.3458,12.3486,12.3142,12.3142,12.3142,0,12.0113,12.0317,12.0437,12.0777,12.0944,12.1155,12.1168,12.1388,12.1546,12.1653,12.192,12.2057,12.2293,12.2565,12.2694,12.2682,12.3073,12.2979,12.2984,12.3003,12.3159,12.3184,12.3207,12.2912,12.291,12.2909,0,0,12.0089,12.0298,12.0568,12.0792,12.0891,12.1098,12.1227,12.1324,12.1537,12.1621,12.18,12.2001,12.2216,12.2353,12.2563,12.2834,12.2898,12.2944,12.2955,12.2963,12.2986,12.3144,12.3169,12.2903,12.2903,12.2903,0,0,12.0077,12.0402,12.0449,12.0732,12.0933,12.1212,12.134,12.1402,12.1611,12.1608,12.1776,12.1837,12.2094,12.2224,12.2126,12.2555,12.2518,12.2545,12.2461,12.2477,12.2488,12.2453,12.2166,0,0,0,0,0,12.0178,12.0363,12.0402,12.0477,12.0905,12.119,12.1246,12.1392,12.1365,12.1463,12.1623,12.1671,12.2207,12.2124,12.2194,12.2303,12.2829,12.2842,12.2854,12.2811,12.2826,12.2839,0,0,0,0,0,0,12.0209,12.0301,12.0397,12.0681,12.0779,12.1185,12.1172,12.1217,12.1358,12.1364,12.1639,12.168,12.1807,12.2098,12.2159,12.2259,12.2145,12.2834,12.2845,12.2855,12.2816,12.2828,12.2839,0,0,0,0,0,12.0234,12.0309,12.0957,12.068,12.0764,12.1004,12.1166,12.1204,12.1315,12.1563,12.1605,12.1414,12.1806,12.1867,12.2135,12.2228,12.2104,12.2126,12.2841,12.285,12.2858,12.2822,0,0,0,0,0,0,12.0253,12.0344,12.0977,12.1008,12.0622,12.0984,12.1046,12.1191,12.1507,12.1551,12.1344,12.1345,12.1808,12.1855,12.1901,12.2209,12.2071,12.2093,12.2107,12.2848,12.2855,12.2861,0,0,0,0,0,0,12.0305,12.0369,12.0993,12.0912,12.0935,12.0965,12.102,12.1267,12.1509,12.1271,12.1282,12.134,12.1736,12.1847,12.1883,12.2262,12.2045,12.2067,12.2082,12.2091,12.2853,12.2859,0,0,0,0,0,0,12.0334,12.039,12.0905,12.0923,12.0943,12.1303,12.1185,12.1613,12.1444,12.1255,12.1432,12.1427,12.1726,12.1766,12.187,12.2234,12.2255,12.2046,12.206,12.2071,12.2078,0,0,0,0,0,0,0,12.0359,11.9954,12.0793,12.0932,12.0949,12.1296,12.1304,12.1313,12.1443,12.1438,12.1434,12.1429,12.1922,12.1946,12.197,12.221,0,0,12.2044,12.2054,0,0,0,0,0,0,0,0,11.9934,11.9949,12.0794,12.08,12.0807,12.1297,12.1304,12.1311,12.1442,12.1438,12.1435,12.1431,12.1928,12.1947,12.1967,0,0,0,0,0,0,0,0,0,0,0,0,0,0,0,12.0795,12.08,0,12.1298,12.1304,12.131,12.1441,12.1438,12.1435,12.1432,12.1934,12.1949,12.1965,0,0,0,0,0,0,0,0,0,0,0,0,0,0,0,0,0,0,0,0,0,0,0,0,0,0,0,0,0,0,0,0,0,0,0,0,0,0,0,0,0,0,0,0,0,0,0,0,0,0,0,0,0,0,0,0,0,0,0,0,0,0,0,0,0,0,0,0,0]}]]]